OPS 4682 DEB, 18784

Orbit data source: Space-Track

OPS 4682 DEB, 18784 is space debris in LEO originally from a launch on Sat, 03 Apr 1965 UTC launched from the Air Force Western Test Range (AFWTR). Debris objects in space refer to the collection of defunct objects orbiting the Earth. Examples of debris include non-operational satellites, rocket bodies, and fragments generated from explosions, collisions, or faulty payload assembly.

Loading next visibility...
Identifier
18784, 1965-027AL
Orbit
LEO
Country
Flag of USUS
Related business
Manufacturer
Unknown
Mission
Spacecraft
Bus & Motor
Unknown
Mass
Unknown
Launch date (UTC)
1965-04-03 (61 years ago)
Launch vehicle
Unknown
Launch site
Air Force Western Test Range (AFWTR)
Object type
Payload
Rocket body
Debris
Shape & HBR
Unknown shape, 0.1 m
Radar Cross Section
Medium (>0.1 m² and <1 m²)

Expand to show TLE details & history
Last TLE update: 13 hours ago

TLE from 13 hours ago
0 OPS 4682 DEB
1 18784U 65027AL  26208.43273483  .00000592  00000-0  20154-2 0  9990
2 18784  90.2524   5.3195 0040561  12.8003  13.4376 12.97151310807600
Epoch: 2026-07-27T10:23Z
TLE epoch observation values (Epoch: 2026-07-27T10:23:08.289Z)
Latitude
26.37764°
Longitude
-95.70597°
Altitude
1,246.29 km
Speed
7.248 km/s
True Right ascension
00h 20m 46s
True Declination
26° 14' 59"
Sunlit
Object was in daylight at epoch
Visualization orbit readout
Latitude
Unknown
Longitude
Unknown
Altitude
Unknown
Speed
Unknown
Apparent Right ascension
Unknown
Apparent Declination
Unknown
Sunlit
N/A
Visualization observer readout
Local Sidereal Time
13:13:38
Azimuth
Unknown
Elevation
Unknown
Doppler factor
Unknown
Orbital elements
Apogee altitude
1,301.423 km
Perigee altitude
1,239.376 km
Semi-major axis
7,648.537 km
Eccentricity
0.00406
Inclination
90.2524°
RAAN
5.3195°
Arg. of periapsis
12.8003°
True anomaly
13.54615°
Mean anomaly
13.4376°
Eccentric anomaly
13.49182°
Mean motion
3.24471 °/min
Orbital period
110.95 mins
BSTAR
0.0020154
Loading maneuver chart data...
Computing Atmospheric mass density...
Loading historical data...
Loading historical data...
Loading historical data...
Loading historical data...
Loading historical data...
Loading historical data...
Loading historical data...

Documentation

Showing up to 5 results
|